Regional Weather Roundup
Issued by NWS

Home | Current Version | Previous Version | Text Only | Print | Product List | Glossary Off
Versions: 1 2 3 4 5 6 7 8 9 10 11 12 13 14 15 16 17 18 19 20 21 22 23 24 25 26 27 28 29 30 31 32 33 34 35 36 37 38 39 40 41 42 43 44 45 46 47 48 49 50

000
ASUS43 KFSD 230002
RWRSD

WEATHER ROUNDUP FOR SOUTH DAKOTA
NATIONAL WEATHER SERVICE SIOUX FALLS SD
600 PM CST WED FEB 22 2017

NOTE: "FAIR" INDICATES FEW OR NO CLOUDS BELOW 12,000 FEET WITH NO
SIGNIFICANT WEATHER AND/OR OBSTRUCTIONS TO VISIBILITY.


SDZ001>005-009-010-012>017-230100-
NORTHWEST AND NORTH CENTRAL SOUTH DAKOTA

CITY           SKY/WX    TMP DP  RH WIND       PRES   REMARKS
BUFFALO          N/A     33  30  88 NE10      29.83R WCI  25
FAITH            N/A     34  30  85 N16       29.88R WCI  24
MOBRIDGE       CLOUDY    35  30  82 N12       29.85R WCI  27
$$

SDZ012>016-024>037-041>051-057-063-072>074-230100-
SOUTHWEST AND SOUTH CENTRAL SOUTH DAKOTA

CITY           SKY/WX    TMP DP  RH WIND       PRES   REMARKS
RAPID CTY ARPT CLEAR     39  29  67 N29G39    29.82R
PIERRE         PTCLDY    38  32  79 N20       29.82R
CUSTER         CLEAR     39  13  34 W9        29.78R
ELLSWORTH AFB  CLOUDY    39  29  68 N23G32    29.84R
PHILIP         PTCLDY    40  31  70 N20       29.85R
PINE RIDGE     CLOUDY    47  31  53 N21G30    29.81R
SPEARFISH      CLOUDY    36  28  75 NW14      29.88R
WINNER         FAIR      50  37  61 N20G30    29.79R
$$

SDZ004>011-016>023-039-040-230100-
NORTHEAST SOUTH DAKOTA

CITY           SKY/WX    TMP DP  RH WIND       PRES   REMARKS
ABERDEEN       CLOUDY    33  28  81 N18       29.86R WCI  22
WATERTOWN      CLOUDY    35  32  88 N14       29.76R WCI  26
BROOKINGS      MOCLDY    41  37  86 NW12      29.74R
SISSETON         N/A     33  32  96 N20       29.80R WCI  21
$$

SDZ017-020-022-023-036>040-048>070-230100-
SOUTHEAST SOUTH DAKOTA

CITY           SKY/WX    TMP DP  RH WIND       PRES   REMARKS
SIOUX FALLS    MOCLDY    48  40  73 NW16G25   29.73R
HURON          CLOUDY    39  36  89 N18       29.80R
CHAMBERLAIN    MOCLDY    50  39  66 N13       29.79R
MITCHELL       MOCLDY    50  40  68 N14       29.76R
YANKTON        PTCLDY    54  37  54 NW9       29.74R
$$

ABBREVIATIONS USED IN REMARKS
   TC - TEMPERATURE IN CELSIUS
  WCI - WIND CHILL INDEX
   HX - HEAT INDEX
  VSB - VISIBILITY





USA.gov is the U.S. government's official web portal to all federal, state and local government web resources and services.